• In Deutschland
  • Länderverzeichnis
  • Für 7 Tage
  • Wassertemperatur
  • Satellitenkarten
  • Wetterkarte
  • Widgets
  • user-avatar
    Anmelden

    Stündliche Wetter Igls

    Heute, 20 August, Sonntag

    Zeit Temperatur Niederschläge Wind Luftdruck Luftfeuchtigkeit
    00:00 +12°C° 0,2 mm 2 m/S 687 mmHg 96%
    01:00 +12°C° 0,2 mm 2 m/S 687 mmHg 95%
    02:00 +10°C° 0 mm 2 m/S 687 mmHg 96%
    03:00 +10°C° 0 mm 2 m/S 687 mmHg 96%
    04:00 +9°C° 0 mm 2 m/S 687 mmHg 96%
    05:00 +10°C° 0,1 mm 2 m/S 687 mmHg 95%
    06:00 +10°C° 0,1 mm 2 m/S 688 mmHg 94%
    07:00 +12°C° 0,1 mm 1 m/S 688 mmHg 93%
    08:00 +13°C° 0,1 mm 2 m/S 688 mmHg 87%
    09:00 +14°C° 0,1 mm 2 m/S 688 mmHg 82%
    10:00 +16°C° 0,1 mm 2 m/S 689 mmHg 76%
    11:00 +16°C° 0,1 mm 2 m/S 689 mmHg 71%
    12:00 +17°C° 0,1 mm 2 m/S 689 mmHg 67%
    13:00 +18°C° 0,1 mm 2 m/S 689 mmHg 62%
    14:00 +18°C° 0,1 mm 2 m/S 689 mmHg 62%
    15:00 +18°C° 0,1 mm 2 m/S 689 mmHg 62%
    16:00 +18°C° 0,1 mm 2 m/S 689 mmHg 61%
    17:00 +17°C° 0,1 mm 2 m/S 689 mmHg 70%
    18:00 +15°C° 0,1 mm 2 m/S 689 mmHg 78%
    19:00 +14°C° 0,1 mm 1 m/S 689 mmHg 87%
    20:00 +13°C° 0 mm 1 m/S 689 mmHg 89%
    21:00 +12°C° 0 mm 1 m/S 689 mmHg 92%
    22:00 +11°C° 0 mm 1 m/S 689 mmHg 94%
    23:00 +11°C° 0 mm 1 m/S 689 mmHg 94%

    Morgen, 21 August, Montag

    Zeit Temperatur Niederschläge Wind Luftdruck Luftfeuchtigkeit
    00:00 +11°C° 0 mm 1 m/S 689 mmHg 94%
    01:00 +10°C° 0 mm 1 m/S 689 mmHg 94%
    02:00 +10°C° 0 mm 1 m/S 689 mmHg 94%
    03:00 +9°C° 0 mm 1 m/S 689 mmHg 94%
    04:00 +9°C° 0 mm 1 m/S 689 mmHg 93%
    05:00 +10°C° 0 mm 1 m/S 689 mmHg 88%
    06:00 +11°C° 0 mm 1 m/S 689 mmHg 83%
    07:00 +12°C° 0 mm 1 m/S 689 mmHg 78%
    08:00 +15°C° 0 mm 1 m/S 689 mmHg 68%
    09:00 +18°C° 0 mm 1 m/S 690 mmHg 57%
    10:00 +19°C° 0 mm 2 m/S 690 mmHg 47%
    11:00 +20°C° 0 mm 2 m/S 690 mmHg 45%
    12:00 +20°C° 0 mm 2 m/S 690 mmHg 43%
    13:00 +21°C° 0 mm 2 m/S 689 mmHg 41%
    14:00 +21°C° 0 mm 2 m/S 689 mmHg 44%
    15:00 +20°C° 0 mm 2 m/S 689 mmHg 47%
    16:00 +20°C° 0 mm 2 m/S 689 mmHg 50%
    17:00 +18°C° 0 mm 2 m/S 689 mmHg 60%
    18:00 +17°C° 0 mm 2 m/S 689 mmHg 69%
    19:00 +15°C° 0 mm 2 m/S 688 mmHg 79%
    20:00 +14°C° 0 mm 1 m/S 689 mmHg 83%
    21:00 +13°C° 0 mm 1 m/S 689 mmHg 88%
    22:00 +12°C° 0 mm 1 m/S 689 mmHg 93%
    23:00 +12°C° 0 mm 1 m/S 689 mmHg 93%

    übermorgen, 22 August, Dienstag

    Zeit Temperatur Niederschläge Wind Luftdruck Luftfeuchtigkeit
    00:00 +11°C° 0 mm 1 m/S 689 mmHg 93%
    01:00 +10°C° 0 mm 1 m/S 688 mmHg 93%
    02:00 +10°C° 0 mm 1 m/S 688 mmHg 92%
    03:00 +10°C° 0 mm 1 m/S 688 mmHg 91%
    04:00 +10°C° 0 mm 1 m/S 688 mmHg 90%
    05:00 +11°C° 0 mm 1 m/S 688 mmHg 84%
    06:00 +13°C° 0 mm 1 m/S 689 mmHg 79%
    07:00 +13°C° 0 mm 0 m/S 689 mmHg 73%
    08:00 +18°C° 0 mm 1 m/S 689 mmHg 66%
    09:00 +20°C° 0 mm 1 m/S 689 mmHg 58%
    10:00 +22°C° 0 mm 1 m/S 690 mmHg 50%
    11:00 +23°C° 0 mm 1 m/S 689 mmHg 48%
    12:00 +24°C° 0 mm 1 m/S 689 mmHg 46%
    13:00 +25°C° 0 mm 1 m/S 689 mmHg 44%
    14:00 +25°C° 0 mm 2 m/S 689 mmHg 46%
    15:00 +25°C° 0 mm 2 m/S 688 mmHg 48%
    16:00 +24°C° 0 mm 2 m/S 688 mmHg 50%
    17:00 +21°C° 0 mm 2 m/S 688 mmHg 62%
    18:00 +20°C° 0 mm 1 m/S 687 mmHg 74%
    19:00 +16°C° 0 mm 1 m/S 687 mmHg 86%
    20:00 +15°C° 0 mm 1 m/S 687 mmHg 89%
    21:00 +14°C° 0 mm 1 m/S 687 mmHg 91%
    22:00 +13°C° 0 mm 1 m/S 687 mmHg 94%
    23:00 +13°C° 0 mm 1 m/S 687 mmHg 94%

    23 August, Mittwoch

    Zeit Temperatur Niederschläge Wind Luftdruck Luftfeuchtigkeit
    00:00 +13°C° 0 mm 1 m/S 687 mmHg 93%
    01:00 +13°C° 0 mm 1 m/S 687 mmHg 93%
    02:00 +13°C° 0 mm 1 m/S 686 mmHg 92%
    03:00 +13°C° 0 mm 1 m/S 686 mmHg 91%
    04:00 +13°C° 0 mm 1 m/S 686 mmHg 90%
    05:00 +14°C° 0 mm 1 m/S 687 mmHg 85%
    06:00 +15°C° 0 mm 1 m/S 687 mmHg 80%
    07:00 +18°C° 0 mm 1 m/S 687 mmHg 75%
    08:00 +21°C° 0 mm 1 m/S 688 mmHg 64%
    09:00 +23°C° 0 mm 1 m/S 688 mmHg 54%
    10:00 +26°C° 0 mm 1 m/S 689 mmHg 43%
    11:00 +26°C° 0 mm 1 m/S 689 mmHg 41%
    12:00 +27°C° 0 mm 1 m/S 689 mmHg 39%
    13:00 +28°C° 0 mm 1 m/S 689 mmHg 36%
    14:00 +28°C° 0 mm 2 m/S 688 mmHg 38%
    15:00 +27°C° 0 mm 2 m/S 688 mmHg 40%
    16:00 +27°C° 0 mm 2 m/S 688 mmHg 42%
    17:00 +24°C° 0 mm 1 m/S 688 mmHg 55%
    18:00 +22°C° 0 mm 1 m/S 688 mmHg 68%
    19:00 +19°C° 0 mm 1 m/S 687 mmHg 81%
    20:00 +18°C° 0 mm 1 m/S 687 mmHg 82%
    21:00 +18°C° 0 mm 1 m/S 688 mmHg 83%
    22:00 +16°C° 0 mm 1 m/S 688 mmHg 84%
    23:00 +16°C° 0 mm 1 m/S 688 mmHg 82%

    24 August, Donnerstag

    Zeit Temperatur Niederschläge Wind Luftdruck Luftfeuchtigkeit
    00:00 +15°C° 0 mm 1 m/S 688 mmHg 81%
    01:00 +15°C° 0 mm 1 m/S 687 mmHg 80%
    02:00 +15°C° 0 mm 1 m/S 687 mmHg 79%
    03:00 +15°C° 0 mm 1 m/S 687 mmHg 78%
    04:00 +15°C° 0 mm 2 m/S 687 mmHg 77%
    05:00 +16°C° 0 mm 1 m/S 688 mmHg 74%
    06:00 +19°C° 0 mm 1 m/S 688 mmHg 71%
    07:00 +20°C° 0 mm 1 m/S 688 mmHg 68%
    08:00 +22°C° 0 mm 1 m/S 689 mmHg 60%
    09:00 +24°C° 0 mm 1 m/S 689 mmHg 51%
    10:00 +27°C° 0 mm 1 m/S 690 mmHg 43%
    11:00 +27°C° 0 mm 1 m/S 690 mmHg 43%
    12:00 +28°C° 0 mm 1 m/S 690 mmHg 42%
    13:00 +28°C° 0 mm 2 m/S 690 mmHg 42%
    14:00 +27°C° 0,4 mm 1 m/S 689 mmHg 48%
    15:00 +26°C° 0,4 mm 1 m/S 689 mmHg 54%
    16:00 +26°C° 0,4 mm 1 m/S 689 mmHg 60%
    17:00 +24°C° 0,4 mm 1 m/S 689 mmHg 67%
    18:00 +22°C° 0,4 mm 1 m/S 689 mmHg 74%
    19:00 +21°C° 0,4 mm 1 m/S 689 mmHg 81%
    20:00 +20°C° 0,1 mm 1 m/S 689 mmHg 82%
    21:00 +19°C° 0,1 mm 1 m/S 689 mmHg 82%
    22:00 +19°C° 0,1 mm 1 m/S 689 mmHg 83%
    23:00 +17°C° 0 mm 2 m/S 689 mmHg 83%

    25 August, Freitag

    Zeit Temperatur Niederschläge Wind Luftdruck Luftfeuchtigkeit
    00:00 +17°C° 0 mm 2 m/S 689 mmHg 82%
    01:00 +17°C° 0 mm 2 m/S 689 mmHg 82%
    02:00 +16°C° 0 mm 2 m/S 689 mmHg 82%
    03:00 +16°C° 0 mm 2 m/S 688 mmHg 82%
    04:00 +16°C° 0 mm 2 m/S 688 mmHg 82%
    05:00 +17°C° 0 mm 2 m/S 689 mmHg 79%
    06:00 +18°C° 0 mm 2 m/S 689 mmHg 77%
    07:00 +19°C° 0 mm 2 m/S 689 mmHg 75%
    08:00 +23°C° 0 mm 1 m/S 690 mmHg 65%
    09:00 +25°C° 0 mm 1 m/S 690 mmHg 56%
    10:00 +28°C° 0 mm 1 m/S 690 mmHg 46%
    11:00 +29°C° 0,1 mm 1 m/S 690 mmHg 44%
    12:00 +29°C° 0,1 mm 1 m/S 690 mmHg 42%
    13:00 +30°C° 0,1 mm 2 m/S 690 mmHg 40%
    14:00 +30°C° 0,2 mm 1 m/S 690 mmHg 42%
    15:00 +29°C° 0,2 mm 1 m/S 690 mmHg 45%
    16:00 +29°C° 0,2 mm 1 m/S 690 mmHg 47%
    17:00 +27°C° 0,7 mm 1 m/S 689 mmHg 59%
    18:00 +24°C° 0,7 mm 1 m/S 689 mmHg 71%
    19:00 +22°C° 0,7 mm 1 m/S 689 mmHg 83%
    20:00 +21°C° 0,8 mm 1 m/S 689 mmHg 84%
    21:00 +21°C° 0,8 mm 1 m/S 689 mmHg 85%
    22:00 +19°C° 0,8 mm 2 m/S 689 mmHg 87%
    23:00 +19°C° 0,2 mm 1 m/S 689 mmHg 87%
    Mehr zeigen